This demonstration page uses our WeatherBlox Daily Observations layout. Learn more.

Left ArrowRight Arrow

Hourly Observations for August 26, 2016

Temp ( °F °C ) Dew Point ( °F °C ) Humidity (%) Winds ( mph kmh ) Pressure ( in mb ) Visibility ( mi km ) Precip ( " mm )
12:51 am 00:51 Partly Cloudy 72 22.2 60 15.6 66 66 WNW 6 9 29.83 1010 10 16 0.00 0.00
1:51 am 01:51 Clear 72 22.2 59 15 64 64 Calm 29.82 1010 10 16 0.00 0.00
2:51 am 02:51 Cloudy 72 22.2 59 15 64 64 S 8 13 29.83 1010 10 16 0.00 0.00
3:51 am 03:51 Cloudy 71 21.7 60 15.6 68 68 NW 12 19 29.86 1011 10 16 0.00 0.00
4:51 am 04:51 Cloudy 69 20.6 60 15.6 73 73 N 12 19 29.87 1011 10 16 0.01 0.25
5:51 am 05:51 Mostly Cloudy 69 20.6 61 16.1 76 76 NW 8 13 29.87 1012 10 16 0.00 0.00
6:51 am 06:51 Sunny 69 20.6 61 16.1 76 76 W 7 11 29.90 1013 10 16 0.00 0.03
7:51 am 07:51 Sunny 74 23.3 58 14.4 57 57 NW 5 7 29.92 1013 10 16 0.00 0.00
8:51 am 08:51 Sunny 78 25.6 59 15 52 52 WNW 8 13 29.93 1013 10 16 0.00 0.00
9:51 am 09:51 Mostly Sunny 83 28.3 57 13.9 41 41 WNW 12 19 29.92 1013 10 16 0.00 0.00
10:51 am 10:51 Mostly Sunny 82 27.8 55 12.8 40 40 WNW 15 24 29.92 1013 10 16 0.00 0.00
11:51 am 11:51 Sunny 85 29.4 55 12.8 36 36 W 15 24 29.89 1012 10 16 0.00 0.00
12:51 pm 12:51 Sunny 87 30.6 54 12.2 32 32 W 12 19 29.87 1011 10 16 0.00 0.00
1:51 pm 13:51 Sunny 89 31.7 54 12.2 30 30 W 10 17 29.82 1010 10 16 0.00 0.00
2:51 pm 14:51 Sunny 88 31.1 53 11.7 30 30 W 10 17 29.80 1009 10 16 0.00 0.00
3:01 pm 15:01 Partly Cloudy with Nearby Thunderstorms 88 31.1 53 11.7 30 30 WSW 14 22 29.71 1006 10 16 0.00 0.00
3:51 pm 15:51 Sunny with Nearby Thunderstorms 81 27.2 53 11.7 38 38 W 15 24 29.83 1010 10 16 0.00 0.00
4:03 pm 16:03 Sunny 80 26.7 54 12.2 41 41 WSW 18 30 29.77 1008 10 16 0.00 0.00
4:43 pm 16:43 Cloudy with Nearby Thunderstorms 73 22.8 61 16.1 66 66 WNW 16 26 29.83 1010 9 14 0.00 0.03
4:51 pm 16:51 Cloudy with Nearby Thunderstorms 71 21.7 63 17.2 76 76 NW 14 22 29.88 1012 5 8 0.01 0.25
4:58 pm 16:58 Cloudy with Light Rain 72 22.2 62 16.7 71 71 NNW 14 22 29.83 1010 8 13 0.01 0.25
5:51 pm 17:51 Sunny 75 23.9 61 16.1 62 62 WNW 12 19 29.85 1011 10 16 0.01 0.25
6:51 pm 18:51 Clear 74 23.3 61 16.1 64 64 NW 3 6 29.85 1011 10 16 0.00 0.00
7:51 pm 19:51 Clear 72 22.2 60 15.6 66 66 W 5 7 29.87 1012 10 16 0.00 0.00
8:51 pm 20:51 Clear 70 21.1 62 16.7 76 76 N 7 11 29.88 1012 10 16 0.00 0.00
9:51 pm 21:51 Clear 69 20.6 60 15.6 73 73 NE 5 7 29.89 1012 10 16 0.00 0.00
10:51 pm 22:51 Clear 67 19.4 60 15.6 79 79 NE 3 6 29.89 1012 10 16 0.00 0.00
11:51 pm 23:51 Clear 67 19.4 59 15 76 76 Calm 29.88 1012 10 16 0.00 0.00

Powered by AerisWeather